Location: Barrio de Buenos Aires
(28.4500°N, 16.2667°W)
Time: 04:45:52
(UTC+00:00)

CZ-4 R/B - Pass Details

Date: 24 January 2020
Orbit: 580 x 589 km, 97.8° (Epoch: 18 February)

Event Time Altitude Azimuth Distance (km) Brightness Sun altitude
Rises 19:23:20 0° 162° (SSE) 2,792 7.9 -10.3°
Reaches altitude 10° 19:25:30 10° 160° (SSE) 1,895 7.0 -10.8°
Maximum altitude 19:29:34 70° 77° (ENE) 621 4.3 -11.6°
Drops below altitude 10° 19:33:40 10° 354° (N) 1,900 7.0 -12.5°
Sets 19:35:50 0° 352° (N) 2,802 7.9 -13.0°
